| time (UTC) | temp C | wind direction | speed KPH | gust KPH | rain 1hr cm | rain 24hr cm | rain mn cm | humidity % | barometer mb |
| 20260504081512 | 13 | 206 | 0.0 | 4.8 | 0.00 | 0.00 | 0.00 | 75 | 1007.5 |
| 20260504060110 | 14 | 169 | 0.0 | 1.6 | 0.00 | 0.00 | 0.00 | 68 | 1008.9 |
| 20260504050022 | 15 | 144 | 0.0 | 3.2 | 0.00 | 0.00 | 0.00 | 64 | 1008.6 |
| 20260504044547 | 16 | 111 | 1.6 | 3.2 | 0.00 | 0.00 | 0.00 | 65 | 1008.7 |
| 20260504041512 | 16 | 187 | 0.0 | 1.6 | 0.00 | 0.00 | 0.00 | 66 | 1009.6 |
| 20260504040018 | 15 | 148 | 1.6 | 6.4 | 0.00 | 0.00 | 0.00 | 66 | 1009.4 |
| 20260504034514 | 16 | 159 | 0.0 | 0.0 | 0.00 | 0.00 | 0.00 | 67 | 1009.7 |
| 20260504033008 | 16 | 159 | 0.0 | 0.0 | 0.00 | 0.00 | 0.00 | 67 | 1009.8 |
| 20260504031510 | 16 | 159 | 1.6 | 4.8 | 0.00 | 0.00 | 0.00 | 64 | 1009.8 |
| 20260504030006 | 16 | 76 | 0.0 | 0.0 | 0.00 | 0.00 | 0.00 | 65 | 1010.2 |
| 20260504024508 | 16 | 76 | 0.0 | 0.0 | 0.00 | 0.00 | 0.00 | 64 | 1010.1 |
| 20260504023013 | 17 | 76 | 0.0 | 0.0 | 0.00 | 0.00 | 0.00 | 61 | 1009.7 |
| 20260504021542 | 17 | 76 | 0.0 | 0.0 | 0.00 | 0.00 | 0.00 | 60 | 1009.8 |
| 20260504020042 | 17 | 76 | 0.0 | 0.0 | 0.00 | 0.00 | 0.00 | 60 | 1009.9 |
| 20260504014539 | 17 | 76 | 0.0 | 3.2 | 0.00 | 0.00 | 0.00 | 58 | 1009.8 |
| 20260504013037 | 18 | 40 | 0.0 | 0.0 | 0.00 | 0.00 | 0.00 | 55 | 1009.6 |
| 20260504011539 | 19 | 40 | 0.0 | 0.0 | 0.00 | 0.00 | 0.00 | 50 | 1009.5 |
| 20260504010040 | 20 | 40 | 0.0 | 0.0 | 0.00 | 0.00 | 0.00 | 46 | 1009.3 |
| 20260504004541 | 20 | 34 | 0.0 | 0.0 | 0.00 | 0.00 | 0.00 | 46 | 1009.4 |
| 20260504003038 | 21 | 238 | 0.0 | 0.0 | 0.00 | 0.00 | 0.00 | 45 | 1009.4 |
| 20260504001528 | 21 | 238 | 1.6 | 3.2 | 0.00 | 0.00 | 0.00 | 41 | 1009.0 |
| 20260504000045 | 21 | 238 | 0.0 | 8.0 | 0.00 | 0.00 | 0.00 | 40 | 1009.3 |
| 20260503234519 | 21 | 237 | 1.6 | 6.4 | 0.00 | 0.00 | 0.00 | 40 | 1009.4 |
| 20260503233011 | 22 | 240 | 1.6 | 4.8 | 0.00 | 0.00 | 0.00 | 38 | 1009.7 |
| 20260503231523 | 22 | 212 | 0.0 | 4.8 | 0.00 | 0.00 | 0.00 | 38 | 1009.4 |
| 20260503230019 | 22 | 221 | 4.8 | 9.7 | 0.00 | 0.00 | 0.00 | 36 | 1009.4 |
| 20260503224507 | 22 | 214 | 3.2 | 11.3 | 0.00 | 0.00 | 0.00 | 35 | 1009.1 |
| 20260503223101 | 22 | 210 | 3.2 | 12.9 | 0.00 | 0.00 | 0.00 | 35 | 1009.6 |
| 20260503221547 | 22 | 244 | 4.8 | 16.1 | 0.00 | 0.00 | 0.00 | 34 | 1009.8 |
| 20260503220039 | 22 | 225 | 4.8 | 12.9 | 0.00 | 0.00 | 0.00 | 33 | 1009.6 |
| 20260503214513 | 22 | 215 | 6.4 | 16.1 | 0.00 | 0.00 | 0.00 | 33 | 1009.9 |
| 20260503213014 | 22 | 182 | 6.4 | 19.3 | 0.00 | 0.00 | 0.00 | 33 | 1010.1 |
| 20260503211505 | 22 | 222 | 3.2 | 16.1 | 0.00 | 0.00 | 0.00 | 33 | 1010.3 |
| 20260503210005 | 21 | 201 | 4.8 | 16.1 | 0.00 | 0.00 | 0.00 | 32 | 1010.7 |
| 20260503204502 | 21 | 225 | 9.7 | 19.3 | 0.00 | 0.00 | 0.00 | 31 | 1010.7 |
| 20260503203105 | 21 | 179 | 3.2 | 11.3 | 0.00 | 0.00 | 0.00 | 33 | 1011.0 |
| 20260503201557 | 21 | 205 | 4.8 | 16.1 | 0.00 | 0.00 | 0.00 | 33 | 1011.5 |
| 20260503200045 | 20 | 229 | 8.0 | 16.1 | 0.00 | 0.00 | 0.00 | 33 | 1011.5 |
| 20260503194542 | 20 | 211 | 6.4 | 17.7 | 0.00 | 0.00 | 0.00 | 33 | 1011.9 |
| 20260503193054 | 20 | 233 | 4.8 | 14.5 | 0.00 | 0.00 | 0.00 | 35 | 1011.9 |
| 20260503191525 | 20 | 150 | 4.8 | 16.1 | 0.00 | 0.00 | 0.00 | 35 | 1012.2 |
| 20260503190035 | 20 | 214 | 3.2 | 9.7 | 0.00 | 0.00 | 0.00 | 35 | 1012.6 |
| 20260503184521 | 20 | 159 | 4.8 | 16.1 | 0.00 | 0.00 | 0.00 | 36 | 1012.4 |
| 20260503183025 | 19 | 202 | 3.2 | 16.1 | 0.00 | 0.00 | 0.00 | 37 | 1012.8 |
| 20260503181539 | 18 | 235 | 3.2 | 16.1 | 0.00 | 0.00 | 0.00 | 37 | 1013.2 |
| 20260503180034 | 18 | 190 | 8.0 | 16.1 | 0.00 | 0.00 | 0.00 | 35 | 1013.7 |
| 20260503174527 | 18 | 198 | 6.4 | 14.5 | 0.00 | 0.00 | 0.00 | 38 | 1014.1 |
| 20260503173040 | 17 | 232 | 6.4 | 16.1 | 0.00 | 0.00 | 0.00 | 37 | 1014.1 |
| 20260503171511 | 18 | 198 | 11.3 | 19.3 | 0.00 | 0.00 | 0.00 | 35 | 1015.1 |